Weather History for Athens, TX

Change the Weather History Date:

Monday, August 19, 2013

  Actual Average (KTYR) Record (KTYR)
Temperature  
Mean Temperature 80 °F 83 °F  
Max Temperature 93 °F 93 °F 110 °F (1909)
Min Temperature 66 °F 74 °F 59 °F (1976)
Degree Days  
Heating Degree Days 0 0  
Month to date heating degree days 0  
Since 1 June heating degree days 0  
Since 1 July heating degree days 0  
Cooling Degree Days 14 18  
Month to date cooling degree days 359  
Year to date cooling degree days 1717  
Since 1 June cooling degree days 1348  
Growing Degree Days 30 (Base 50)    
Moisture  
Dew Point 60 °F    
Average Humidity 55    
Maximum Humidity 88    
Minimum Humidity 29    
Precipitation  
Precipitation 0.00 in 0.10 in 2.33 in (2004)
Month to date precipitation 1.60  
Year to date precipitation 28.00  
Snow  
Snow 0.00 in - - ()
Month to date snowfall  
Since 1 June snowfall  
Since 1 July snowfall  
Snow Depth -    
Sea Level Pressure  
Sea Level Pressure 30.01 in    
Wind  
Wind Speed 2 mph (ESE)    
Max Wind Speed 9 mph    
Max Gust Speed -    
Visibility 10 miles    
Events      
T = Trace of Precipitation, MM = Missing Value Source: NWS Daily Summary

Daily Weather History Graph

Daily Weather History Graph

Search for Another Location

Airport:

Trip Planner

Search our weather history database for the weather conditions in past years. The results will help you decide how hot, cold, wet, or windy it might be!

Date:

Astronomy

Aug. 19, 2013 Rise Set
Actual Time 6:50 AM CDT 8:02 PM CDT
Civil Twilight 6:24 AM CDT 8:28 PM CDT
Nautical Twilight 5:54 AM CDT 8:58 PM CDT
Astronomical Twilight 5:22 AM CDT 9:30 PM CDT
Moon 6:54 PM CDT (8/19) 5:12 AM CDT (8/19)
Length of Visible Light 14h 03m
Length of Day
13h 12m
Waxing Gibbous, 97% of the Moon is Illuminated
Aug 19
Waxing Gibbous
Aug 20
Full
Aug 28
Last Quarter
Sep 5
New
Sep 12
First Quarter

Hourly Weather History & Observations

Time (CDT) Temp. Heat Index Dew Point Humidity Pressure Visibility Wind Dir Wind Speed Gust Speed Precip Events Conditions
12:15 AM 69.8 °F - 60.8 °F 73% 30.01 in 10.0 mi Calm Calm - N/A   Clear
12:35 AM 69.8 °F - 60.8 °F 73% 30.01 in 10.0 mi Calm Calm - N/A   Clear
12:55 AM 69.8 °F - 60.8 °F 73% 30.01 in 10.0 mi Calm Calm - N/A   Clear
1:15 AM 68.0 °F - 60.8 °F 78% 30.01 in 10.0 mi Calm Calm - N/A   Clear
1:35 AM 68.0 °F - 60.8 °F 78% 30.01 in 10.0 mi Calm Calm - N/A   Clear
1:55 AM 69.8 °F - 60.8 °F 73% 30.01 in 10.0 mi Calm Calm - N/A   Clear
2:15 AM 69.8 °F - 60.8 °F 73% 30.01 in 10.0 mi NE 3.5 mph - N/A   Clear
2:35 AM 71.6 °F - 60.8 °F 69% 30.01 in 10.0 mi NE 3.5 mph - N/A   Clear
2:55 AM 71.6 °F - 60.8 °F 69% 30.01 in 10.0 mi Calm Calm - N/A   Clear
3:15 AM 71.6 °F - 60.8 °F 69% 30.02 in 10.0 mi Calm Calm - N/A   Clear
3:35 AM 71.6 °F - 60.8 °F 69% 30.01 in 10.0 mi NE 3.5 mph - N/A   Clear
3:55 AM 69.8 °F - 60.8 °F 73% 30.01 in 10.0 mi Calm Calm - N/A   Clear
4:15 AM 69.8 °F - 60.8 °F 73% 30.01 in 10.0 mi Calm Calm - N/A   Clear
4:35 AM 69.8 °F - 62.6 °F 78% 30.01 in 10.0 mi Calm Calm - N/A   Clear
4:55 AM 69.8 °F - 62.6 °F 78% 30.01 in 10.0 mi Calm Calm - N/A   Clear
5:15 AM 69.8 °F - 62.6 °F 78% 30.02 in 10.0 mi Calm Calm - N/A   Clear
5:35 AM 69.8 °F - 62.6 °F 78% 30.02 in 10.0 mi Calm Calm - N/A   Clear
5:55 AM 68.0 °F - 62.6 °F 83% 30.03 in 10.0 mi Calm Calm - N/A   Clear
6:15 AM 68.0 °F - 62.6 °F 83% 30.03 in 10.0 mi Calm Calm - N/A   Clear
6:35 AM 66.2 °F - 62.6 °F 88% 30.04 in 10.0 mi Calm Calm - N/A   Clear
6:55 AM 66.2 °F - 62.6 °F 88% 30.04 in 10.0 mi Calm Calm - N/A   Clear
7:15 AM 68.0 °F - 62.6 °F 83% 30.04 in 10.0 mi Calm Calm - N/A   Clear
7:35 AM 69.8 °F - 62.6 °F 78% 30.05 in 7.0 mi Calm Calm - N/A   Clear
7:55 AM 69.8 °F - 62.6 °F 78% 30.05 in 10.0 mi Calm Calm - N/A   Clear
8:15 AM 73.4 °F - 64.4 °F 73% 30.05 in 10.0 mi North - - N/A   Clear
8:35 AM 75.2 °F - 64.4 °F 69% 30.06 in 10.0 mi ESE 9.2 mph - N/A   Clear
8:55 AM 77.0 °F - 64.4 °F 65% 30.07 in 10.0 mi ESE 9.2 mph - N/A   Clear
9:15 AM 78.8 °F - 64.4 °F 61% 30.07 in 10.0 mi SSE 6.9 mph - N/A   Clear
9:35 AM 80.6 °F 82.3 °F 64.4 °F 58% 30.08 in 10.0 mi South 5.8 mph - N/A   Clear
9:55 AM 82.4 °F 83.9 °F 64.4 °F 54% 30.08 in 10.0 mi SE 5.8 mph - N/A   Clear
10:15 AM 82.4 °F 83.9 °F 64.4 °F 54% 30.08 in 10.0 mi South 5.8 mph - N/A   Clear
10:35 AM 84.2 °F 85.6 °F 64.4 °F 51% 30.08 in 10.0 mi South 9.2 mph - N/A   Clear
10:55 AM 84.2 °F 85.6 °F 64.4 °F 51% 30.08 in 10.0 mi SSW 8.1 mph - N/A   Clear
11:15 AM 86.0 °F 87.3 °F 64.4 °F 48% 30.07 in 10.0 mi South 5.8 mph - N/A   Clear
11:35 AM 86.0 °F 86.6 °F 62.6 °F 45% 30.07 in 10.0 mi SE 8.1 mph - N/A   Clear
11:55 AM 86.0 °F 86.6 °F 62.6 °F 45% 30.07 in 10.0 mi SSW 4.6 mph - N/A   Clear
12:15 PM 87.8 °F 87.6 °F 60.8 °F 40% 30.06 in 10.0 mi ESE 4.6 mph - N/A   Mostly Cloudy
12:35 PM 86.0 °F 84.9 °F 57.2 °F 37% 30.05 in 10.0 mi Calm Calm - N/A   Mostly Cloudy
12:55 PM 86.0 °F 84.9 °F 57.2 °F 37% 30.04 in 10.0 mi Calm Calm - N/A   Scattered Clouds
1:15 PM 89.6 °F 88.9 °F 59.0 °F 36% 30.04 in 10.0 mi SE 3.5 mph - N/A   Scattered Clouds
1:35 PM 89.6 °F 88.9 °F 59.0 °F 36% 30.03 in 10.0 mi East 6.9 mph - N/A   Scattered Clouds
1:55 PM 89.6 °F 88.9 °F 59.0 °F 36% 30.02 in 10.0 mi SSE 3.5 mph - N/A   Scattered Clouds
2:15 PM 89.6 °F 88.1 °F 57.2 °F 33% 30.01 in 10.0 mi SE 4.6 mph - N/A   Scattered Clouds
2:35 PM 89.6 °F 88.1 °F 57.2 °F 33% 30.00 in 10.0 mi ENE 3.5 mph - N/A   Clear
2:55 PM 89.6 °F 88.9 °F 59.0 °F 36% 29.99 in 10.0 mi Calm Calm - N/A   Scattered Clouds
3:15 PM 89.6 °F 88.1 °F 57.2 °F 33% 29.99 in 10.0 mi NE 4.6 mph - N/A   Mostly Cloudy
3:35 PM 89.6 °F 88.1 °F 57.2 °F 33% 29.98 in 10.0 mi Calm Calm - N/A   Scattered Clouds
3:55 PM 91.4 °F 89.9 °F 57.2 °F 31% 29.96 in 10.0 mi Calm Calm - N/A   Mostly Cloudy
4:15 PM 93.2 °F 91.9 °F 57.2 °F 30% 29.96 in 10.0 mi SSE 5.8 mph - N/A   Mostly Cloudy
4:35 PM 91.4 °F 89.4 °F 55.4 °F 29% 29.96 in 10.0 mi ENE 6.9 mph - N/A   Mostly Cloudy
4:55 PM 91.4 °F 89.4 °F 55.4 °F 29% 29.95 in 10.0 mi North 4.6 mph - N/A   Scattered Clouds
5:15 PM 91.4 °F 89.4 °F 55.4 °F 29% 29.95 in 10.0 mi ESE 6.9 mph - N/A   Clear
5:35 PM 91.4 °F 89.9 °F 57.2 °F 31% 29.94 in 10.0 mi SE 6.9 mph - N/A   Mostly Cloudy
5:55 PM 91.4 °F 89.9 °F 57.2 °F 31% 29.94 in 10.0 mi East 5.8 mph - N/A   Mostly Cloudy
6:15 PM 91.4 °F 89.9 °F 57.2 °F 31% 29.94 in 10.0 mi East 3.5 mph - N/A   Scattered Clouds
6:35 PM 91.4 °F 89.4 °F 55.4 °F 29% 29.94 in 10.0 mi Calm Calm - N/A   Clear
6:55 PM 89.6 °F 88.1 °F 57.2 °F 33% 29.94 in 10.0 mi ESE 5.8 mph - N/A   Clear
7:15 PM 89.6 °F 88.1 °F 57.2 °F 33% 29.94 in 10.0 mi East 5.8 mph - N/A   Clear
7:35 PM 87.8 °F 86.5 °F 57.2 °F 35% 29.94 in 10.0 mi East 3.5 mph - N/A   Clear
7:55 PM 86.0 °F 84.9 °F 57.2 °F 37% 29.95 in 10.0 mi Calm Calm - N/A   Clear
8:15 PM 84.2 °F 83.8 °F 59.0 °F 42% 29.95 in 10.0 mi Calm Calm - N/A   Clear
8:35 PM 82.4 °F 82.0 °F 57.2 °F 42% 29.95 in 10.0 mi Calm Calm - N/A   Clear
8:55 PM 80.6 °F 81.1 °F 59.0 °F 48% 29.96 in 10.0 mi Calm Calm - N/A   Clear
9:15 PM 78.8 °F - 59.0 °F 51% 29.96 in 10.0 mi Calm Calm - N/A   Clear
9:35 PM 77.0 °F - 60.8 °F 57% 29.96 in 10.0 mi Calm Calm - N/A   Clear
9:55 PM 77.0 °F - 60.8 °F 57% 29.97 in 10.0 mi Calm Calm - N/A   Clear
10:15 PM 73.4 °F - 59.0 °F 61% 29.97 in 10.0 mi Calm Calm - N/A   Clear
10:35 PM 73.4 °F - 59.0 °F 61% 29.97 in 10.0 mi Calm Calm - N/A   Clear
10:55 PM 73.4 °F - 59.0 °F 61% 29.98 in 10.0 mi Calm Calm - N/A   Clear
11:15 PM 75.2 °F - 59.0 °F 57% 29.98 in 10.0 mi Calm Calm - N/A   Clear
11:35 PM 71.6 °F - 59.0 °F 64% 29.98 in 10.0 mi Calm Calm - N/A   Clear
11:55 PM 73.4 °F - 60.8 °F 65% 29.98 in 10.0 mi Calm Calm - N/A   Clear